FENGYUN 1C DEB

Satellite information

Favourite Embed

Satellite Type and Status

DEBRISIN ORBIT

Key statistics

Satellite FENGYUN 1C DEB at a glance.

Uptime

9615

Days in orbit

Revolutions

≈ 13.3

Per day

Orbit

SSO

Sun Synchronous Orbit

Inclination

98.4

Latest

Satellite identification and parameters

Extended collection of information and parameters for FENGYUN 1C DEB.

Object identification

Identified? True

Debris? True

Object name: FENGYUN 1C DEB

International designator: 1999-025CXP

Object number (NORAD): 32322

Object ID (CCSDS): 32322

Country: PEOPLES REPUBLIC OF CHINA (PRC)

Current information (Y/N): Y

RCS size: SMALL

Orbital parameters

Period: 107.951 minutes

Inclination: 98.3759 deg

SMA: 7510.097 km

Apoapsis: 1448.777 km

Periapsis: 815.147 km

RAAN: 144.8282 deg

Eccentricy: 0.04218519

Argument of periapsis: 356.1463 deg

Mean anomaly: 3.6453 deg

Mean motion: 13.33934405 rev/day

Mean motion (dot): 0.00001616 rev/day2

B* drag term: 0.0020126642 1/REarth

Two-line elements (TLE)

Creation date: Sept. 1, 2025, 7:24 p.m.

Reference frame: TEME

Reference center: EARTH

Epoch: Sept. 1, 2025, 10:16 a.m. UTC

TLE line 0: 0 FENGYUN 1C DEB

TLE line 1: 1 32322U 99025CXP 25244.42828486 .00001616 00000-0 20127-2 0 9994

TLE line 2: 2 32322 98.3759 144.8282 0421852 356.1463 3.6453 13.33934405590150

Live tracking on map

Real-time ground track for satellite FENGYUN 1C DEB.

In-orbit conjunctions

A list of the most updated potential collisions computed for object FENGYUN 1C DEB.

Target Orbit TCA Probability of collision Miss distance Type
AUREOLE 3 LEO 2025-05-15 22:37:34 0.0001607584 326.0 (m) PAYLOAD

Associated space launch

Chinese polar orbiting meteorological satellite

FENGYUN 1C DEB was lifted into orbit during the mission ‘Long March 4B | Feng Yun 1C’, on board a Long March 4B space rocket.

The launch took place on May 10, 1999, 1:33 a.m. from Launch Complex 7.

For more information about the launch, click the button.

Launch to space Long March 4B | Feng Yun 1C
Long March 4B | Feng Yun 1C

Agency: N/A

Status: Launch Successful

Launch date: May 10, 1999, 1:33 a.m. UTC

Rocket: Long March 4B

Launch pad: Launch Complex 7

Location: Taiyuan Satellite Launch Center, People's Republic of China

...

Latest news about this satellite

There are no fresh news available about this satellite. Check back as we update our databases every day.


Newsletter sign-up

Weekly statistics, charts and insights to help you stay on top of the space industry.